Location: Demmingen
(48.6757°N, 10.4375°E)
Time: 22:46:46
(UTC+00:00)

Cosmos 1745 Rocket - Pass Details

Date: 09 August 2024
Orbit: 951 x 998 km, 83.0° (Epoch: 08 September)

Event Time Altitude Azimuth Distance (km) Brightness Sun altitude
Rises 02:10:32 0° 354° (N) 3,640 7.7 -15.7°
Reaches altitude 10° 02:13:09 10° 1° (N) 2,690 7.0 -15.4°
Maximum altitude 02:19:03 47° 74° (ENE) 1,255 5.0 -14.8°
Drops below altitude 10° 02:24:56 10° 147° (SSE) 2,687 6.2 -14.1°
Sets 02:27:33 0° 153° (SSE) 3,634 6.8 -13.8°
